Regional Weather Roundup
Issued by NWS

Home | Current Version | Previous Version | Text Only | Print | Product List | Glossary Off
Versions: 1 2 3 4 5 6 7 8 9 10 11 12 13 14 15 16 17 18 19 20 21 22 23 24 25 26 27 28 29 30 31 32 33 34 35 36 37 38 39 40 41 42 43 44 45 46 47 48 49 50

000
ASUS43 KFSD 310310
RWRSD

WEATHER ROUNDUP FOR SOUTH DAKOTA
NATIONAL WEATHER SERVICE SIOUX FALLS SD
1000 PM CDT SUN AUG 30 2015

NOTE: "FAIR" INDICATES FEW OR NO CLOUDS BELOW 12,000 FEET WITH NO
SIGNIFICANT WEATHER AND/OR OBSTRUCTIONS TO VISIBILITY.


SDZ001>005-009-010-012>017-310400-
NORTHWEST AND NORTH CENTRAL SOUTH DAKOTA

CITY           SKY/WX    TMP DP  RH WIND       PRES   REMARKS
BUFFALO          N/A     73  53  49 NE10      29.67S
FAITH            N/A     84  54  35 CALM      29.70R
MOBRIDGE       CLEAR     78  59  51 S12       29.65R
$$

SDZ012>016-024>037-041>051-057-063-072>074-310400-
SOUTHWEST AND SOUTH CENTRAL SOUTH DAKOTA

CITY           SKY/WX    TMP DP  RH WIND       PRES   REMARKS
RAPID CTY ARPT CLOUDY    75  57  53 N8        29.77F
PIERRE         CLEAR     80  53  39 E16       29.70R
CUSTER         CLOUDY    67  52  58 NW6       29.98R
ELLSWORTH AFB  CLOUDY    73  61  66 NW8       29.77
PHILIP         PTCLDY    80  57  45 S14       29.69R
PINE RIDGE     PTCLDY    82  46  28 SW6       29.84R
WINNER         FAIR      82  56  40 S25G33    29.76R
$$

SDZ004>011-016>023-039-040-310400-
NORTHEAST SOUTH DAKOTA

CITY           SKY/WX    TMP DP  RH WIND       PRES   REMARKS
ABERDEEN       CLEAR     73  67  81 S21G28    29.74R
WATERTOWN      PTCLDY    68  63  84 S17       29.84R
BROOKINGS      PTCLDY    66  63  88 S14       29.90S
SISSETON         N/A     68  64  87 S8        29.76S
$$

SDZ017-020-022-023-036>040-048>070-310400-
SOUTHEAST SOUTH DAKOTA

CITY           SKY/WX    TMP DP  RH WIND       PRES   REMARKS
SIOUX FALLS    MOCLDY    67  64  90 S10       29.91R
HURON          PTCLDY    71  66  84 S17G25    29.79R
CHAMBERLAIN    CLEAR     73  66  79 SE13      29.77S
MITCHELL       PTCLDY    70  66  87 SE15      29.83S
YANKTON        CLEAR     70  64  83 S8        29.89R
$$

ABBREVIATIONS USED IN REMARKS
   TC - TEMPERATURE IN CELSIUS
  WCI - WIND CHILL INDEX
   HX - HEAT INDEX
  VSB - VISIBILITY



USA.gov is the U.S. government's official web portal to all federal, state and local government web resources and services.